KI6KEP Weather Reports


time (UTC)temp
C
wind
direction
speed
KPH
gust
KPH
rain 1hr
cm
rain 24hr
cm
rain mn
cm
humidity
%
barometer
mb
20260507015002 25 100 1.6 12.9 0.00 0.00 0.00 23 1009.0
20260507014502 25 94 3.2 9.7 0.00 0.00 0.00 23 1009.0
20260507014003 25 95 3.2 11.3 0.00 0.00 0.00 23 1009.1
20260507013502 25 91 4.8 16.1 0.00 0.00 0.00 23 1009.1
20260507013002 25 84 4.8 16.1 0.00 0.00 0.00 22 1009.1
20260507012502 25 79 4.8 14.5 0.00 0.00 0.00 22 1009.0
20260507011502 25 97 4.8 11.3 0.00 0.00 0.00 22 1009.1
20260507011002 25 75 9.7 17.7 0.00 0.00 0.00 22 1009.0
20260507010503 25 70 9.7 19.3 0.00 0.00 0.00 22 1009.1
20260507010002 25 61 8.0 19.3 0.00 0.00 0.00 22 1008.9
20260507005003 25 93 6.4 20.9 0.00 0.00 0.00 23 1008.9
20260507004502 25 117 8.0 20.9 0.00 0.00 0.00 23 1008.9
20260507004002 25 181 8.0 19.3 0.00 0.00 0.00 24 1008.9
20260507003003 25 359 8.0 19.3 0.00 0.00 0.00 23 1008.9
20260507002502 25 33 9.7 17.7 0.00 0.00 0.00 23 1009.0
20260507001503 25 89 11.3 19.3 0.00 0.00 0.00 22 1008.9
20260507001002 25 85 12.9 20.9 0.00 0.00 0.00 23 1008.9
20260507000502 25 60 9.7 27.4 0.00 0.00 0.00 23 1008.9
20260507000002 25 53 8.0 27.4 0.00 0.00 0.00 23 1008.7
20260506235503 25 45 6.4 17.7 0.00 0.00 0.00 23 1008.6
20260506235002 25 358 6.4 17.7 0.00 0.00 0.00 23 1008.7
20260506234502 25 348 8.0 20.9 0.00 0.00 0.00 23 1008.7
20260506234002 25 1 6.4 22.5 0.00 0.00 0.00 23 1008.8
20260506233002 25 50 6.4 14.5 0.00 0.00 0.00 23 1008.9
20260506232503 25 28 8.0 24.1 0.00 0.00 0.00 23 1008.9
20260506232003 25 67 12.9 24.1 0.00 0.00 0.00 22 1009.0
20260506231502 25 85 12.9 24.1 0.00 0.00 0.00 23 1008.9
20260506231003 25 75 9.7 24.1 0.00 0.00 0.00 22 1008.9
20260506230503 25 93 8.0 19.3 0.00 0.00 0.00 23 1008.9
20260506230003 24 138 11.3 24.1 0.00 0.00 0.00 24 1008.9
20260506225502 25 142 11.3 24.1 0.00 0.00 0.00 24 1009.1
20260506225002 25 104 8.0 24.1 0.00 0.00 0.00 24 1009.1
20260506224003 25 359 8.0 20.9 0.00 0.00 0.00 24 1009.2
20260506223502 25 2 9.7 22.5 0.00 0.00 0.00 25 1009.4
20260506223002 25 39 12.9 22.5 0.00 0.00 0.00 25 1009.4
20260506222502 25 77 11.3 22.5 0.00 0.00 0.00 26 1009.3
20260506222003 25 65 9.7 22.5 0.00 0.00 0.00 26 1009.5
20260506221502 24 68 9.7 22.5 0.00 0.00 0.00 27 1009.6
20260506221002 24 35 9.7 20.9 0.00 0.00 0.00 28 1009.7
20260506220503 24 9 9.7 20.9 0.00 0.00 0.00 28 1009.8
20260506220002 24 37 6.4 20.9 0.00 0.00 0.00 29 1009.7
20260506215502 23 88 4.8 14.5 0.00 0.00 0.00 28 1009.7
20260506215002 23 88 6.4 16.1 0.00 0.00 0.00 30 1009.8
20260506214503 23 90 4.8 16.1 0.00 0.00 0.00 30 1009.9
20260506214002 23 103 6.4 16.1 0.00 0.00 0.00 30 1010.0
20260506213502 23 82 8.0 22.5 0.00 0.00 0.00 30 1010.2
20260506213003 23 67 6.4 22.5 0.00 0.00 0.00 30 1010.2
20260506212502 23 27 8.0 14.5 0.00 0.00 0.00 30 1010.2
20260506212002 23 1 8.0 16.1 0.00 0.00 0.00 31 1010.4
20260506211503 23 2 6.4 20.9 0.00 0.00 0.00 31 1010.4
20260506211003 23 1 8.0 20.9 0.00 0.00 0.00 32 1010.5
20260506210502 23 6 8.0 19.3 0.00 0.00 0.00 31 1010.6
20260506210003 23 15 8.0 29.0 0.00 0.00 0.00 31 1010.5
20260506205503 23 11 8.0 29.0 0.00 0.00 0.00 31 1010.5
20260506204502 22 3 11.3 22.5 0.00 0.00 0.00 32 1010.6
20260506204003 22 10 8.0 20.9 0.00 0.00 0.00 31 1010.6
20260506203502 22 27 8.0 20.9 0.00 0.00 0.00 31 1010.6
20260506203003 22 23 8.0 17.7 0.00 0.00 0.00 31 1010.7
20260506202002 22 50 8.0 17.7 0.00 0.00 0.00 31 1010.8
20260506201502 22 22 9.7 19.3 0.00 0.00 0.00 32 1010.8
20260506200502 22 359 9.7 17.7 0.00 0.00 0.00 32 1010.8
20260506200002 22 13 6.4 17.7 0.00 0.00 0.00 32 1010.6
20260506195503 21 29 6.4 14.5 0.00 0.00 0.00 32 1010.7
20260506195003 22 20 9.7 20.9 0.00 0.00 0.00 32 1010.8
20260506194502 21 41 8.0 20.9 0.00 0.00 0.00 32 1010.9
20260506194003 21 82 4.8 20.9 0.00 0.00 0.00 33 1010.8
20260506193502 21 70 8.0 19.3 0.00 0.00 0.00 33 1010.9
20260506193002 21 37 9.7 19.3 0.00 0.00 0.00 34 1011.0
20260506192503 21 21 8.0 17.7 0.00 0.00 0.00 34 1011.0
20260506192002 21 35 6.4 17.7 0.00 0.00 0.00 35 1011.2
20260506191003 21 35 8.0 19.3 0.00 0.00 0.00 36 1011.3
20260506190503 20 24 6.4 19.3 0.00 0.00 0.00 36 1011.3
20260506190002 20 58 6.4 19.3 0.00 0.00 0.00 37 1011.3
20260506185502 20 32 6.4 16.1 0.00 0.00 0.00 37 1011.4
20260506185004 20 11 6.4 17.7 0.00 0.00 0.00 37 1011.4
20260506184502 20 34 6.4 17.7 0.00 0.00 0.00 37 1011.5
20260506184002 20 35 4.8 16.1 0.00 0.00 0.00 37 1011.5
20260506183503 19 14 6.4 12.9 0.00 0.00 0.00 39 1011.6
20260506183003 19 9 8.0 16.1 0.00 0.00 0.00 38 1011.5
20260506182502 19 1 8.0 17.7 0.00 0.00 0.00 40 1011.6
20260506182002 19 2 6.4 17.7 0.00 0.00 0.00 39 1011.7
20260506181503 18 7 4.8 16.1 0.00 0.00 0.00 39 1011.7
20260506181003 18 15 4.8 16.1 0.00 0.00 0.00 40 1011.8
20260506180503 18 21 4.8 16.1 0.00 0.00 0.00 41 1011.7
20260506180002 18 22 8.0 16.1 0.00 0.00 0.00 42 1011.6
20260506175503 18 20 4.8 20.9 0.00 0.00 0.00 41 1011.6
20260506175003 18 18 4.8 20.9 0.00 0.00 0.00 43 1011.6
20260506174503 17 21 6.4 17.7 0.00 0.00 0.00 43 1011.5
20260506174003 17 17 6.4 17.7 0.00 0.00 0.00 43 1011.5
20260506173503 17 8 4.8 14.5 0.00 0.00 0.00 44 1011.6
20260506173002 17 6 4.8 14.5 0.00 0.00 0.00 45 1011.5
20260506172502 17 14 4.8 14.5 0.00 0.00 0.00 45 1011.6
20260506172003 17 12 3.2 14.5 0.00 0.00 0.00 46 1011.6
20260506171002 16 1 6.4 16.1 0.00 0.00 0.00 47 1011.6
20260506170503 16 1 6.4 14.5 0.00 0.00 0.00 48 1011.7
20260506170003 16 1 4.8 14.5 0.00 0.00 0.00 48 1011.6
20260506165502 16 4 3.2 9.7 0.00 0.00 0.00 50 1011.6
20260506165003 16 3 3.2 9.7 0.00 0.00 0.00 49 1011.6
20260506164503 16 1 1.6 9.7 0.00 0.00 0.00 50 1011.7
20260506164002 15 1 3.2 8.0 0.00 0.00 0.00 50 1011.7
20260506163502 15 1 3.2 8.0 0.00 0.00 0.00 50 1011.5
20260506163003 15 1 3.2 12.9 0.00 0.00 0.00 52 1011.5
20260506162503 15 2 4.8 12.9 0.00 0.00 0.00 53 1011.4
20260506161502 14 5 6.4 16.1 0.00 0.00 0.00 55 1011.6
20260506161003 14 3 8.0 17.7 0.00 0.00 0.00 55 1011.5
20260506160003 14 2 6.4 16.1 0.00 0.00 0.00 56 1011.5
20260506155502 13 3 4.8 16.1 0.00 0.00 0.00 56 1011.4
20260506155003 13 1 4.8 14.5 0.00 0.00 0.00 57 1011.4
20260506154502 13 3 4.8 12.9 0.00 0.00 0.00 58 1011.4
20260506154002 13 3 4.8 12.9 0.00 0.00 0.00 57 1011.5
20260506153003 13 1 3.2 9.7 0.00 0.00 0.00 58 1011.3
20260506152502 13 2 1.6 6.4 0.00 0.00 0.00 58 1011.3
20260506152002 12 1 1.6 8.0 0.00 0.00 0.00 59 1011.4
20260506151503 12 1 1.6 8.0 0.00 0.00 0.00 58 1011.3
20260506151002 12 1 0.0 1.6 0.00 0.00 0.00 59 1011.4
20260506150502 12 1 0.0 4.8 0.00 0.00 0.00 60 1011.3
20260506150003 12 1 0.0 4.8 0.00 0.00 0.00 59 1011.2
20260506145503 12 1 0.0 3.2 0.00 0.00 0.00 60 1011.3
20260506145002 12 1 0.0 3.2 0.00 0.00 0.00 60 1011.2
20260506144503 12 1 0.0 3.2 0.00 0.00 0.00 61 1011.3
20260506143502 11 1 0.0 3.2 0.00 0.00 0.00 63 1011.3
20260506143003 11 1 0.0 1.6 0.00 0.00 0.00 65 1011.2
20260506142502 11 1 1.6 4.8 0.00 0.00 0.00 67 1011.2
20260506141503 10 1 0.0 4.8 0.00 0.00 0.00 69 1010.9
20260506141002 10 1 0.0 4.8 0.00 0.00 0.00 70 1010.9
20260506140003 9 1 0.0 3.2 0.00 0.00 0.00 72 1010.7
20260506135503 9 1 0.0 3.2 0.00 0.00 0.00 73 1010.7
20260506135002 8 1 0.0 1.6 0.00 0.00 0.00 74 1010.6
20260506134502 8 1 0.0 3.2 0.00 0.00 0.00 75 1010.7
20260506134003 8 1 0.0 3.2 0.00 0.00 0.00 76 1010.6
20260506133503 7 1 0.0 3.2 0.00 0.00 0.00 77 1010.7
20260506133002 7 1 0.0 3.2 0.00 0.00 0.00 77 1010.6
20260506132502 7 1 0.0 1.6 0.00 0.00 0.00 78 1010.5
20260506132003 7 1 0.0 1.6 0.00 0.00 0.00 78 1010.5
20260506131503 7 1 1.6 4.8 0.00 0.00 0.00 78 1010.4
20260506130502 7 1 1.6 4.8 0.00 0.00 0.00 78 1010.3
20260506130003 7 1 1.6 4.8 0.00 0.00 0.00 78 1010.1
20260506125503 7 1 1.6 6.4 0.00 0.00 0.00 78 1010.1
20260506125003 7 1 3.2 6.4 0.00 0.00 0.00 78 1010.0
20260506124502 7 1 3.2 6.4 0.00 0.00 0.00 78 1010.0
20260506124003 7 1 3.2 6.4 0.00 0.00 0.00 79 1010.0
20260506123503 7 1 3.2 6.4 0.00 0.00 0.00 79 1009.8
20260506123002 7 1 4.8 6.4 0.00 0.00 0.00 79 1009.8
20260506122503 7 1 4.8 8.0 0.00 0.00 0.00 79 1009.8
20260506122003 7 1 4.8 8.0 0.00 0.00 0.00 80 1009.8
20260506121502 7 1 3.2 8.0 0.00 0.00 0.00 80 1009.9
20260506121002 7 1 4.8 8.0 0.00 0.00 0.00 80 1009.9
20260506120503 7 1 4.8 8.0 0.00 0.00 0.00 80 1009.9
20260506115502 7 1 4.8 9.7 0.00 0.00 0.00 80 1009.8
20260506115003 7 1 4.8 9.7 0.00 0.00 0.00 80 1009.8
20260506114503 7 1 4.8 9.7 0.00 0.00 0.00 80 1009.8
20260506114002 7 359 4.8 9.7 0.00 0.00 0.00 79 1009.8
20260506113503 7 357 4.8 9.7 0.00 0.00 0.00 79 1009.7
20260506113003 7 358 6.4 9.7 0.00 0.00 0.00 79 1009.7
20260506112502 7 359 6.4 9.7 0.00 0.00 0.00 79 1009.7
20260506112003 7 359 6.4 9.7 0.00 0.00 0.00 79 1009.7
20260506111503 7 1 6.4 9.7 0.00 0.00 0.00 79 1009.7
20260506111003 7 1 6.4 12.9 0.00 0.00 0.00 80 1009.8
20260506110502 7 1 6.4 12.9 0.00 0.00 0.00 80 1009.8
20260506110003 7 358 6.4 12.9 0.00 0.00 0.00 80 1009.7
20260506105503 7 357 6.4 14.5 0.00 0.00 0.00 80 1009.7
20260506105003 7 358 6.4 14.5 0.00 0.00 0.00 80 1009.7
20260506104003 7 358 6.4 9.7 0.00 0.00 0.00 80 1009.6
20260506103503 7 357 8.0 14.5 0.00 0.00 0.00 79 1009.6
20260506102502 7 358 8.0 14.5 0.00 0.00 0.00 79 1009.6
20260506102002 7 358 6.4 14.5 0.00 0.00 0.00 79 1009.6
20260506101503 7 359 6.4 12.9 0.00 0.00 0.00 79 1009.6
20260506100504 7 359 8.0 14.5 0.00 0.00 0.00 79 1009.6
20260506100002 7 1 6.4 14.5 0.00 0.00 0.00 79 1009.6
20260506094502 7 359 6.4 16.1 0.00 0.00 0.00 79 1009.5
20260506094003 7 359 8.0 16.1 0.00 0.00 0.00 79 1009.5
20260506093503 7 1 9.7 16.1 0.00 0.00 0.00 79 1009.5
20260506093002 7 1 9.7 19.3 0.00 0.00 0.00 79 1009.5
20260506092003 7 1 12.9 19.3 0.00 0.00 0.00 79 1009.4
20260506091503 8 1 12.9 19.3 0.00 0.00 0.00 80 1009.5
20260506091003 8 1 11.3 19.3 0.00 0.00 0.00 80 1009.5
20260506090502 8 1 9.7 16.1 0.00 0.00 0.00 80 1009.5
20260506090003 8 1 11.3 16.1 0.00 0.00 0.00 80 1009.6
20260506085503 8 1 11.3 17.7 0.00 0.00 0.00 80 1009.5
20260506085002 8 1 11.3 19.3 0.00 0.00 0.00 81 1009.5
20260506084504 8 1 11.3 19.3 0.00 0.00 0.00 81 1009.6
20260506084003 8 1 11.3 19.3 0.00 0.00 0.00 81 1009.4
20260506083503 7 1 11.3 19.3 0.00 0.00 0.00 81 1009.5
20260506083003 7 1 11.3 19.3 0.00 0.00 0.00 81 1009.5
20260506082002 7 1 8.0 16.1 0.00 0.00 0.00 81 1009.5
20260506081503 7 359 8.0 14.5 0.00 0.00 0.00 81 1009.5
20260506081003 7 1 9.7 17.7 0.00 0.00 0.00 81 1009.6
20260506080503 7 2 11.3 17.7 0.00 0.00 0.00 81 1009.6
20260506073503 8 1 8.0 16.1 0.00 0.00 0.00 80 1009.6
20260506073003 8 1 8.0 16.1 0.00 0.00 0.00 80 1009.6
20260506072503 8 359 8.0 16.1 0.00 0.00 0.00 80 1009.6
20260506072002 8 359 9.7 17.7 0.00 0.00 0.00 79 1009.6
20260506071503 8 1 9.7 17.7 0.00 0.00 0.00 79 1009.6
20260506070503 8 1 11.3 17.7 0.00 0.00 0.00 78 1009.6
20260506062505 8 3 9.7 14.5 0.00 0.00 0.00 75 1009.5
20260506062003 8 2 6.4 12.9 0.00 0.00 0.00 75 1009.4
20260506061503 8 357 4.8 12.9 0.00 0.00 0.00 75 1009.3
20260506060503 8 359 4.8 9.7 0.00 0.00 0.00 74 1009.3
20260506050503 8 1 4.8 14.5 0.00 0.00 0.00 72 1008.9
20260506045002 9 359 4.8 14.5 0.00 0.00 0.00 72 1008.6
20260506044503 9 1 6.4 14.5 0.00 0.00 0.00 72 1008.6
20260506044003 9 359 6.4 12.9 0.00 0.00 0.00 72 1008.5
20260506043002 9 359 6.4 16.1 0.00 0.00 0.00 71 1008.3
20260506042503 9 359 6.4 16.1 0.00 0.00 0.00 71 1008.2
20260506042003 9 359 6.4 14.5 0.00 0.00 0.00 71 1008.2
20260506041503 9 359 6.4 14.5 0.00 0.00 0.00 70 1008.2
20260506041002 9 1 6.4 14.5 0.00 0.00 0.00 70 1008.1
20260506040503 10 1 8.0 14.5 0.00 0.00 0.00 70 1008.1
20260506040003 10 1 8.0 14.5 0.00 0.00 0.00 70 1007.9
20260506035503 10 1 8.0 16.1 0.00 0.00 0.00 69 1007.8
20260506035002 10 1 8.0 17.7 0.00 0.00 0.00 69 1007.7
20260506034503 10 1 9.7 17.7 0.00 0.00 0.00 69 1007.6
20260506033002 10 359 8.0 16.1 0.00 0.00 0.00 68 1007.5
20260506032503 10 1 8.0 16.1 0.00 0.00 0.00 68 1007.5
20260506032003 10 1 6.4 16.1 0.00 0.00 0.00 68 1007.4
20260506031502 10 359 8.0 17.7 0.00 0.00 0.00 68 1007.4
20260506031002 10 359 8.0 17.7 0.00 0.00 0.00 68 1007.4
20260506030503 10 359 9.7 19.3 0.00 0.00 0.00 67 1007.2
20260506030003 10 1 11.3 19.3 0.00 0.00 0.00 67 1007.0
20260506025503 10 1 11.3 20.9 0.00 0.00 0.00 67 1007.0
20260506025003 10 359 12.9 20.9 0.00 0.00 0.00 66 1006.9
20260506024004 11 1 9.7 24.1 0.00 0.00 0.00 65 1006.8
20260506023003 11 359 9.7 24.1 0.00 0.00 0.00 64 1006.6
20260506022502 11 359 9.7 19.3 0.00 0.00 0.00 64 1006.5
20260506022003 11 1 9.7 24.1 0.00 0.00 0.00 63 1006.4
20260506021503 11 359 11.3 24.1 0.00 0.00 0.00 63 1006.4
20260506020503 12 359 14.5 25.7 0.00 0.00 0.00 62 1006.4
20260506020003 12 359 12.9 25.7 0.00 0.00 0.00 61 1006.1